NOAA 16 DEB, 41654

Orbit data source: Space-Track

NOAA 16 DEB, 41654 is space debris in SSO originally from a launch on Thu, 21 Sep 2000 UTC launched from the Air Force Western Test Range (AFWTR). Debris objects in space refer to the collection of defunct objects orbiting the Earth. Examples of debris include non-operational satellites, rocket bodies, and fragments generated from explosions, collisions, or faulty payload assembly.

Loading next visibility...
Identifier
41654, 2000-055NT
Orbit
SSO
Country
Flag of USUS
Related business
Manufacturer
Unknown
Mission
Spacecraft
Bus & Motor
Unknown
Mass
Unknown
Launch date (UTC)
2000-09-21 (26 years ago)
Launch vehicle
Unknown
Launch site
Air Force Western Test Range (AFWTR)
Object type
Payload
Rocket body
Debris
Shape & HBR
Unknown shape, 0.1 m
Radar Cross Section
Medium (>0.1 m² and <1 m²)

Expand to show TLE details & history
Last TLE update: 2 days ago

TLE from 2 days ago
0 NOAA 16 DEB
1 41654U 00055NT  26234.40875423  .00002280  00000-0  90494-3 0  9991
2 41654  98.6246 284.6146 0034582 317.9811  41.8719 14.29431504534757
Epoch: 2026-08-22T09:48Z
TLE epoch observation values (Epoch: 2026-08-22T09:48:36.365Z)
Latitude
-0.00004°
Longitude
166.7435°
Altitude
778.128 km
Speed
7.474 km/s
True Right ascension
18h 58m 27s
True Declination
0° 00' 00"
Sunlit
Object was in full shadow at epoch
Visualization orbit readout
Latitude
Unknown
Longitude
Unknown
Altitude
Unknown
Speed
Unknown
Apparent Right ascension
Unknown
Apparent Declination
Unknown
Sunlit
N/A
Visualization observer readout
Local Sidereal Time
05:21:37
Azimuth
Unknown
Elevation
Unknown
Doppler factor
Unknown
Orbital elements
Apogee altitude
815.565 km
Perigee altitude
765.982 km
Semi-major axis
7,168.911 km
Eccentricity
0.00346
Inclination
98.6246°
RAAN
284.6146°
Arg. of periapsis
317.9811°
True anomaly
42.13726°
Mean anomaly
41.8719°
Eccentric anomaly
42.00449°
Mean motion
3.57572 °/min
Orbital period
100.68 mins
BSTAR
0.00090494
Loading maneuver chart data...
Computing Atmospheric mass density...
Loading historical data...
Loading historical data...
Loading historical data...
Loading historical data...
Loading historical data...
Loading historical data...
Loading historical data...

Documentation

Showing up to 5 results
|